SCP
0 0 0 0 0 0 0 0 0 0 0 0 0 0 0 0 0 0 0 0 0 0 0 0 0 0 1 1 1 1 1 1 1 0 0 0 0 0 0 0 0 0 0 0
0 0 0 0 0 0 0 0 0 0 0 0 0 0 0 0 0 0 0 0 0 0 0 0 0 0 1 1 1 1 1 1 1 1 0 0 0 0 0 0 0 0 0 0
0 0 0 0 0 0 0 0 0 0 0 0 0 0 0 0 0 0 0 0 0 0 0 0 1 1 1 1 1 1 1 1 1 1 0 0 0 0 0 0 0 0 0 0
0 0 0 0 0 0 0 0 0 0 0 0 0 0 0 0 0 0 0 0 0 0 0 0 1 1 1 1 1 1 1 1 1 1 0 0 0 0 0 0 0 0 0 0
0 0 0 0 0 0 0 0 0 0 0 0 0 0 0 0 0 0 0 0 0 0 0 0 1 1 1 1 1 1 1 1 1 1 1 1 0 0 0 0 0 0 0 0
0 0 0 0 0 0 0 0 0 0 0 0 0 0 0 0 0 0 0 0 0 0 0 0 0 1 1 1 1 1 1 1 1 1 1 1 0 0 0 0 0 0 0 0
0 0 0 0 0 0 0 0 0 0 0 0 0 0 0 0 0 0 0 0 0 0 0 0 0 1 1 1 1 1 1 1 1 1 0 0 0 0 0 0 0 0 0 0
0 0 0 0 0 0 0 0 0 0 0 0 0 0 0 0 0 0 0 0 0 0 0 0 1 1 1 1 1 1 1 1 1 1 0 0 0 0 0 0 0 0 0 0
0 0 0 0 0 0 0 0 0 0 0 0 0 0 0 0 0 0 0 0 0 0 0 1 1 1 1 1 1 1 1 1 1 1 1 1 0 0 0 0 0 0 0 0
0 0 0 0 0 0 0 0 0 0 0 0 0 0 0 0 0 0 0 0 0 0 0 1 1 1 1 1 1 1 1 1 1 1 1 1 1 1 0 0 0 0 0 0
0 0 0 0 0 0 0 0 0 0 0 0 0 0 0 0 0 0 0 0 0 0 0 0 1 1 1 1 1 1 1 1 1 1 1 1 1 1 1 0 0 1 1 1
0 0 0 0 0 0 0 0 0 0 0 0 0 0 0 0 0 0 0 0 0 0 0 0 1 1 1 1 1 1 1 1 1 1 1 1 1 1 1 1 1 1 1 1
0 0 0 0 0 0 0 0 0 0 0 0 0 0 0 0 0 0 0 0 0 0 0 0 0 1 1 1 1 1 1 1 1 1 1 1 1 1 1 1 1 1 1 1
0 0 0 0 0 0 0 0 0 0 0 0 0 0 0 0 0 0 0 0 0 0 0 0 1 1 1 1 1 1 1 1 1 1 1 1 1 1 1 1 1 1 1 1
0 0 0 0 0 0 0 0 0 0 0 0 0 0 0 0 0 0 0 0 0 0 0 0 1 1 1 1 1 1 1 1 1 1 1 1 1 1 1 1 1 1 1 1
0 0 0 0 0 0 0 0 0 0 0 0 0 0 0 0 0 0 0 0 0 0 0 0 1 1 1 1 1 1 1 1 0 1 1 1 1 1 1 1 1 1 1 1
0 0 0 0 0 0 0 0 0 0 0 0 0 0 0 0 0 0 0 0 0 0 0 0 0 1 1 1 1 1 1 0 0 0 1 1 1 1 1 1 0 1 1 1
0 0 0 0 0 0 0 0 0 0 0 0 0 0 0 0 0 0 0 0 0 0 0 0 0 1 1 1 0 0 0 0 0 0 1 1 1 1 1 1 1 1 1 1
0 0 0 0 0 0 0 0 0 0 0 0 0 0 0 0 0 0 0 0 0 0 0 0 0 0 0 0 0 0 0 0 0 0 1 1 1 1 1 1 1 1 1 1
0 0 0 0 0 0 0 0 0 0 0 0 0 0 0 0 0 0 0 0 0 0 0 0 0 0 0 0 0 0 0 0 0 0 0 1 1 1 1 1 1 0 0 0
0 0 0 0 0 0 0 0 0 0 0 0 0 0 0 0 0 0 0 0 0 0 0 0 0 0 0 0 0 0 0 0 0 0 0 0 0 0 0 0 0 0 0 0
0 0 0 0 0 0 0 0 0 0 0 0 0 0 0 0 0 0 0 0 0 0 0 0 0 0 0 0 0 0 0 0 0 0 0 0 0 0 0 0 0 0 0 0
0 0 0 0 0 0 0 0 0 0 0 0 0 0 0 0 0 0 0 0 0 0 0 0 0 0 0 0 0 0 0 0 0 0 0 0 0 0 0 0 0 0 0 0
0 0 0 0 0 0 0 0 0 0 0 0 0 0 0 0 0 0 0 0 0 0 0 0 0 0 0 0 0 0 0 0 0 0 0 0 0 0 0 0 0 0 0 0
0 0 0 0 0 0 0 0 0 0 0 0 0 0 0 0 0 0 0 0 0 0 0 0 0 0 0 0 0 0 0 0 0 0 0 0 0 0 0 0 0 0 0 0
0 0 0 0 0 0 0 0 0 0 0 0 0 0 0 0 0 0 0 0 0 0 0 0 0 0 0 0 0 0 0 0 0 0 0 0 0 0 0 0 0 0 0 0
Wind_Speed
9 11 12 10 10 8 7 9 8 5 3 6 7 6 4 4 5 6 6 6 6 6 7 6 6 7 7 7 7 7 6 6 5 4 4 4 4 3 2 2 2 2 2 3
10 13 9 7 8 9 9 10 8 6 4 5 6 7 5 5 7 6 6 6 6 7 7 7 7 7 7 7 7 6 6 6 5 4 3 2 2 2 2 1 1 2 2 3
13 5 6 9 10 10 11 11 9 6 5 7 8 10 9 7 6 6 6 6 7 7 8 8 7 7 7 7 6 5 5 5 5 4 4 3 3 3 3 2 2 2 2 2
11 7 8 11 11 11 10 9 9 8 10 8 10 9 8 8 8 7 7 7 7 7 8 8 8 7 7 6 6 6 5 5 5 5 4 5 4 3 2 2 2 2 2 2
8 8 10 12 10 10 8 6 9 10 11 10 10 11 6 8 9 8 7 7 7 7 8 8 8 8 7 7 6 6 6 5 4 4 4 4 3 2 2 3 3 3 2 2
8 6 8 8 7 8 7 7 8 10 11 13 11 11 8 7 8 7 6 7 7 7 8 8 7 7 7 7 6 6 6 5 4 4 4 4 4 3 3 3 3 3 2 2
10 10 9 7 8 9 10 9 8 10 10 9 7 9 6 2 4 5 4 5 6 6 7 8 8 8 7 7 6 6 6 5 5 4 4 3 4 4 4 3 3 3 3 2
9 9 10 9 10 8 12 13 10 8 9 6 6 9 3 3 3 3 4 4 5 6 6 7 8 7 7 7 7 6 6 5 5 5 4 4 4 3 3 3 3 3 2 2
7 6 7 7 8 9 11 12 10 11 11 10 7 5 4 5 5 5 5 5 5 5 5 6 7 7 6 7 6 6 6 5 5 5 5 4 4 3 3 3 4 2 2 2
6 7 7 6 8 9 9 8 8 10 10 11 9 9 5 8 7 6 6 6 5 5 5 5 6 6 6 6 6 6 6 5 5 5 5 4 5 4 4 4 3 2 2 2
7 8 7 9 10 9 9 10 10 9 10 10 9 4 1 4 5 5 5 5 5 5 5 5 5 5 5 5 6 6 6 5 5 5 4 4 5 5 4 4 3 3 3 3
5 7 8 8 5 5 8 10 10 10 9 10 10 3 4 2 3 3 3 3 4 4 4 4 5 5 5 5 5 5 5 5 5 5 5 5 5 5 4 4 4 3 3 4
4 6 8 8 9 8 9 10 10 10 9 10 11 4 5 4 3 2 2 3 3 3 3 4 4 4 5 4 4 4 5 5 5 5 6 5 5 5 4 4 4 4 4 4
5 7 9 9 5 5 8 9 10 12 11 11 12 7 4 4 3 3 2 2 3 3 3 4 4 4 4 4 4 4 4 4 5 5 5 5 5 5 5 4 4 4 4 5
5 8 9 9 7 7 9 10 11 13 13 13 9 7 5 3 3 2 2 2 3 3 3 3 3 3 3 3 4 4 4 4 4 5 5 5 5 5 5 5 4 4 5 5
4 7 8 9 8 9 10 10 11 12 12 11 9 7 2 1 1 1 2 2 3 3 3 3 3 3 3 3 3 3 4 3 4 5 5 4 5 5 5 5 4 4 4 4
5 6 8 9 7 9 11 9 10 9 9 9 9 3 1 1 2 1 1 1 2 2 2 3 2 2 2 3 3 4 4 4 4 4 4 4 4 4 4 4 4 4 4 4
7 7 6 7 6 11 1 1 4 6 5 4 3 2 1 1 1 0 0 0 0 0 1 1 1 2 2 3 3 3 4 4 4 4 4 3 4 4 4 3 4 4 3 3
7 8 7 7 9 8 4 2 3 5 5 3 3 2 1 1 1 2 2 2 1 1 1 0 1 1 2 2 3 3 4 4 3 3 3 2 3 3 3 3 3 3 3 3
6 8 8 8 9 8 1 3 1 5 6 2 2 3 2 3 5 1 2 1 1 1 1 1 1 1 1 1 2 3 3 3 2 3 3 2 2 2 3 2 2 2 3 3
7 8 10 10 9 5 4 2 3 7 1 2 1 3 3 3 2 2 1 0 1 1 2 1 1 2 1 1 2 2 2 1 2 2 2 2 1 2 2 2 2 3 3 3
6 6 7 8 9 3 5 2 3 3 4 1 1 1 1 1 2 2 1 1 1 1 1 1 1 2 2 1 1 1 1 1 1 1 1 1 1 1 2 2 2 3 3 3
5 4 3 4 2 4 1 1 2 2 1 1 1 1 1 2 2 2 2 1 1 1 1 1 1 2 2 1 1 1 0 0 1 2 2 2 1 1 1 2 2 3 3 3
3 2 4 4 2 1 1 1 1 1 1 1 0 1 3 3 3 3 2 2 2 2 2 2 2 1 1 1 1 1 0 0 1 2 2 2 2 1 1 1 1 2 2 3
3 4 5 5 4 3 3 2 1 0 1 1 1 1 2 3 3 3 3 3 2 2 2 2 1 1 1 0 0 0 0 1 1 2 2 2 2 1 1 1 1 1 1 1
4 5 5 4 2 4 2 2 1 1 1 1 1 1 2 3 3 3 3 2 3 3 3 2 2 1 1 0 0 0 0 1 1 2 2 1 1 1 1 1 1 3 2 2
Wind_Direction
194 217 215 212 224 252 252 246 240 219 190 230 229 232 218 206 205 198 192 189 188 180 168 163 164 158 153 151 153 159 165 161 173 181 189 184 189 195 193 193 190 194 193 198
201 221 223 224 222 236 239 240 236 217 195 245 238 239 226 213 210 208 203 199 192 176 165 162 164 164 162 159 160 161 163 166 177 175 191 195 196 191 179 186 178 197 191 211
223 206 199 216 215 225 233 241 240 229 210 223 236 234 219 209 205 206 210 207 196 182 173 167 167 166 162 160 164 161 163 167 172 168 176 171 175 187 180 180 178 195 202 206
232 211 208 220 221 226 235 236 243 228 231 227 225 250 213 203 202 205 207 202 196 184 176 170 168 165 163 159 156 153 153 158 162 174 182 188 198 196 181 186 170 184 204 212
217 208 215 226 226 228 244 237 235 236 242 250 228 251 229 198 210 208 206 204 200 187 179 175 173 168 162 158 153 150 147 148 156 177 181 196 200 193 178 182 173 194 189 211
230 213 230 236 230 227 221 218 225 233 238 240 233 243 243 209 217 210 202 200 198 189 182 179 175 168 161 158 156 152 152 154 161 176 183 196 190 193 190 197 188 196 188 201
215 210 207 214 211 202 211 221 221 220 223 235 210 235 244 201 212 214 211 200 189 187 185 181 178 173 168 164 163 159 157 162 168 176 183 190 190 190 197 207 201 214 199 195
222 210 195 204 223 219 217 230 241 247 246 235 200 234 205 170 197 208 204 199 186 187 187 185 181 174 172 170 168 167 166 168 174 177 180 190 199 206 198 213 228 214 220 205
232 218 171 201 223 234 220 230 251 265 265 258 225 213 192 186 204 202 190 188 192 184 184 183 180 177 175 173 172 176 174 175 181 182 181 187 199 210 199 199 222 216 216 202
251 242 202 192 210 223 247 235 230 244 252 253 243 234 220 187 200 198 197 194 190 181 178 176 176 178 177 176 174 179 184 184 186 187 192 187 193 197 198 210 208 222 224 219
243 243 214 199 219 215 209 219 234 245 253 259 258 239 112 192 199 202 200 192 189 189 183 177 175 175 173 176 177 181 184 187 190 189 193 196 194 191 195 204 210 211 217 215
229 252 242 223 218 260 237 236 231 242 244 249 265 246 104 157 180 196 199 183 186 192 188 176 173 172 174 177 182 183 187 193 195 191 195 200 196 191 195 200 214 215 218 225
214 237 238 214 199 206 225 229 237 247 256 251 253 230 125 145 174 186 193 177 179 187 186 178 172 176 178 179 184 188 196 197 198 197 199 199 201 198 201 205 214 220 221 228
245 242 250 260 275 232 226 226 229 239 245 249 251 255 201 198 208 211 212 199 195 194 192 189 179 178 178 181 187 196 202 199 203 203 203 201 203 204 206 206 211 221 225 225
243 244 244 261 269 257 248 242 233 238 251 260 261 258 257 240 243 240 237 220 209 203 199 192 185 175 178 184 192 195 195 200 206 204 203 205 202 201 202 205 213 221 227 224
237 255 248 247 245 247 251 246 239 242 249 253 259 264 294 59 219 234 239 226 214 209 203 196 190 183 189 197 203 199 201 200 205 209 206 202 201 200 203 210 216 219 223 223
227 239 245 245 239 249 245 244 241 234 241 251 259 274 65 243 244 255 253 242 237 210 194 193 191 196 204 213 213 211 210 209 208 211 209 204 202 202 204 209 211 215 216 213
234 237 244 246 233 242 233 43 260 247 254 257 262 260 256 286 300 330 5 312 7 54 160 181 193 196 201 208 211 215 203 204 203 203 205 205 207 203 204 208 216 216 215 215
228 231 243 243 240 247 208 186 234 243 239 240 241 219 147 102 177 157 70 28 31 7 24 81 191 179 183 194 199 200 197 195 197 202 206 201 202 206 199 205 210 205 207 213
198 225 240 239 250 251 177 115 230 253 233 175 211 204 199 212 238 153 90 28 38 40 62 77 100 129 134 169 183 188 187 187 197 207 205 197 192 203 196 192 202 195 200 207
201 214 231 239 246 254 74 110 206 236 23 81 231 224 225 243 332 56 82 86 78 81 85 97 111 101 88 117 155 168 166 189 223 215 185 169 169 193 185 181 196 200 204 197
232 229 226 238 242 231 88 160 245 5 32 3 256 217 222 150 106 118 121 146 126 111 109 111 104 82 81 101 134 147 159 209 206 158 138 137 151 188 164 170 190 200 204 196
234 269 276 264 290 53 110 324 4 349 329 322 228 162 173 180 171 154 157 172 161 152 145 131 118 94 79 68 94 125 79 228 160 128 122 128 138 147 144 172 196 204 205 216
203 256 254 248 235 272 271 289 299 307 332 344 203 183 191 192 183 177 175 170 166 157 147 139 127 115 89 52 37 51 52 282 146 124 130 143 155 162 157 205 223 224 212 210
260 226 242 252 267 263 232 258 293 52 92 104 151 197 204 192 186 181 178 173 159 142 135 131 135 139 123 103 113 146 174 202 167 156 160 166 169 162 157 145 1 292 314 334
242 245 253 275 293 277 284 277 255 217 211 182 161 176 208 198 191 191 186 174 158 149 144 138 136 126 101 112 178 164 188 194 193 178 169 175 175 156 183 149 102 54 30 73